Weather History for KFSO - November, 2013

Change the Weather History Date:

Saturday, November 23, 2013

  Actual Average (KPBG) Record (KPBG)
Temperature  
Mean Temperature 30 °F 34 °F  
Max Temperature 40 °F 43 °F 65 °F (1953)
Min Temperature 21 °F 25 °F 6 °F (1989)
Degree Days  
Heating Degree Days 34 31  
Month to date heating degree days 619  
Since 1 July heating degree days 1402  
Cooling Degree Days 0 0  
Month to date cooling degree days 0  
Year to date cooling degree days 346  
Moisture  
Dew Point 22 °F    
Average Humidity 69    
Maximum Humidity 86    
Minimum Humidity 48    
Precipitation  
Precipitation 0.00 in - 1.53 in (1992)
Month to date precipitation  
Year to date precipitation  
Sea Level Pressure  
Sea Level Pressure 29.89 in    
Wind  
Wind Speed 9 mph (WNW)    
Max Wind Speed 16 mph    
Max Gust Speed 31 mph    
Visibility 8 miles    
Events Snow    
T = Trace of Precipitation, MM = Missing Value Source: NWS Daily Summary

Daily Weather History Graph

Daily Weather History Graph

Search for Another Location

Airport or City:

Trip Planner

Search our weather history database for the weather conditions in past years. The results will help you decide how hot, cold, wet, or windy it might be!

Date:

Astronomy

Nov. 23, 2013 Rise Set
Actual Time 7:00 AM EST 4:16 PM EST
Civil Twilight 6:28 AM EST 4:49 PM EST
Nautical Twilight 5:52 AM EST 5:25 PM EST
Astronomical Twilight 5:17 AM EST 6:00 PM EST
Moon 9:48 PM EST (11/23) 11:11 AM EST (11/23)
Length of Visible Light 10h 20m
Length of Day
9h 15m
Waning Gibbous, 70% of the Moon is Illuminated
Nov 23
Waning Gibbous
Nov 25
Last Quarter
Dec 2
New
Dec 9
First Quarter
Dec 17
Full

Hourly Weather History & Observations

Time (EST) Temp. Windchill Dew Point Humidity Pressure Visibility Wind Dir Wind Speed Gust Speed Precip Events Conditions
12:15 AM 40.6 °F 32.3 °F 33.8 °F 77% 29.84 in 10.0 mi West 16.1 mph 25.3 mph N/A   Mostly Cloudy
12:35 AM 38.7 °F 30.1 °F 32.2 °F 78% 29.85 in 10.0 mi West 15.0 mph 21.9 mph N/A   Mostly Cloudy
12:55 AM 38.3 °F 30.5 °F 31.6 °F 77% 29.86 in 10.0 mi West 12.7 mph 24.2 mph N/A   Overcast
1:15 AM 38.3 °F 30.1 °F 30.2 °F 73% 29.88 in 10.0 mi West 13.8 mph 31.1 mph N/A   Overcast
1:35 AM 37.0 °F 29.3 °F 28.8 °F 72% 29.90 in 10.0 mi West 11.5 mph 25.3 mph N/A   Overcast
1:55 AM 35.6 °F 29.2 °F 27.5 °F 72% 29.91 in 10.0 mi West 8.1 mph 21.9 mph N/A   Overcast
2:15 AM 35.6 °F 30.7 °F 27.5 °F 72% 29.91 in 10.0 mi West 5.8 mph 17.3 mph N/A   Overcast
2:35 AM 35.6 °F 28.6 °F 27.5 °F 72% 29.92 in 10.0 mi West 9.2 mph 18.4 mph N/A   Overcast
2:55 AM 35.6 °F 29.9 °F 27.5 °F 72% 29.92 in 10.0 mi West 6.9 mph 17.3 mph N/A   Overcast
3:15 AM 35.6 °F 28.6 °F 27.1 °F 71% 29.93 in 10.0 mi WNW 9.2 mph - N/A   Overcast
3:35 AM 35.6 °F 26.6 °F 26.8 °F 70% 29.94 in 10.0 mi West 13.8 mph 25.3 mph N/A   Overcast
3:55 AM 35.6 °F 28.6 °F 27.0 °F 71% 29.95 in 10.0 mi West 9.2 mph - N/A   Overcast
4:15 AM 35.6 °F 27.5 °F 26.2 °F 69% 29.95 in 10.0 mi WNW 11.5 mph 21.9 mph N/A   Overcast
4:35 AM 33.4 °F 24.8 °F 23.9 °F 68% 29.95 in 10.0 mi WNW 11.5 mph 19.6 mph N/A   Overcast
4:55 AM 33.1 °F 24.4 °F 23.5 °F 68% 29.96 in 10.0 mi West 11.5 mph 19.6 mph N/A   Overcast
5:15 AM 33.1 °F 24.9 °F 23.9 °F 69% 29.96 in 10.0 mi WNW 10.4 mph 20.7 mph N/A   Overcast
5:35 AM 33.1 °F 26.1 °F 23.9 °F 69% 29.97 in 10.0 mi WNW 8.1 mph 17.3 mph N/A   Overcast
5:55 AM 33.1 °F 26.1 °F 23.9 °F 69% 29.97 in 10.0 mi WNW 8.1 mph - N/A   Overcast
6:15 AM 33.1 °F 24.9 °F 23.9 °F 69% 29.97 in 10.0 mi WNW 10.4 mph 16.1 mph N/A   Overcast
6:35 AM 32.5 °F 27.1 °F 23.0 °F 68% 29.97 in 10.0 mi West 5.8 mph - N/A   Overcast
6:55 AM 32.0 °F 23.0 °F 21.4 °F 65% 29.98 in 10.0 mi West 11.5 mph 18.4 mph N/A   Overcast
7:15 AM 32.0 °F 24.2 °F 21.7 °F 66% 29.98 in 10.0 mi WNW 9.2 mph - N/A   Overcast
7:35 AM 32.0 °F 25.6 °F 21.9 °F 66% 29.98 in 10.0 mi West 6.9 mph - N/A   Overcast
7:55 AM 31.8 °F 24.6 °F 21.2 °F 65% 29.98 in 10.0 mi WNW 8.1 mph 17.3 mph N/A   Overcast
8:15 AM 31.8 °F 25.4 °F 21.6 °F 66% 29.98 in 10.0 mi WNW 6.9 mph - N/A   Overcast
8:35 AM 31.6 °F 24.4 °F 21.0 °F 65% 29.98 in 10.0 mi West 8.1 mph - N/A   Overcast
8:55 AM 31.8 °F 25.4 °F 20.7 °F 63% 29.98 in 10.0 mi West 6.9 mph - N/A   Overcast
9:15 AM 31.8 °F 23.3 °F 19.9 °F 62% 29.98 in 10.0 mi West 10.4 mph 18.4 mph N/A   Overcast
9:35 AM 32.0 °F 24.8 °F 19.6 °F 60% 29.98 in 10.0 mi West 8.1 mph - N/A   Overcast
9:55 AM 32.0 °F 25.6 °F 20.7 °F 63% 29.97 in 10.0 mi West 6.9 mph - N/A   Overcast
10:15 AM 32.9 °F 24.1 °F 21.7 °F 64% 29.97 in 10.0 mi West 11.5 mph 18.4 mph N/A   Overcast
10:35 AM 32.2 °F 25.8 °F 21.0 °F 63% 29.96 in 10.0 mi WSW 6.9 mph - N/A   Overcast
10:55 AM 32.2 °F 25.0 °F 20.1 °F 61% 29.95 in 10.0 mi West 8.1 mph - N/A   Overcast
11:15 AM 32.5 °F 28.1 °F 20.3 °F 61% 29.94 in 10.0 mi West 4.6 mph - N/A   Overcast
11:35 AM 33.1 °F 27.7 °F 19.9 °F 59% 29.93 in 10.0 mi West 5.8 mph - N/A   Overcast
11:55 AM 33.1 °F 30.0 °F 20.5 °F 60% 29.91 in 10.0 mi WNW 3.5 mph - N/A   Overcast
12:15 PM 33.1 °F 30.0 °F 20.5 °F 60% 29.90 in 10.0 mi West 3.5 mph - N/A   Overcast
12:35 PM 35.6 °F 30.7 °F 22.1 °F 58% 29.89 in 10.0 mi WNW 5.8 mph - N/A   Overcast
12:55 PM 33.4 °F - 19.4 °F 56% 29.87 in 10.0 mi Calm Calm - N/A   Overcast
1:15 PM 35.6 °F - 21.4 °F 56% 29.85 in 10.0 mi Calm Calm - N/A   Overcast
1:35 PM 36.1 °F - 20.3 °F 53% 29.84 in 10.0 mi Calm Calm - N/A   Overcast
1:55 PM 38.1 °F 34.6 °F 20.1 °F 48% 29.82 in 10.0 mi West 4.6 mph - N/A   Mostly Cloudy
2:15 PM 35.6 °F 31.7 °F 19.9 °F 53% 29.82 in 10.0 mi West 4.6 mph - N/A   Mostly Cloudy
2:35 PM 35.6 °F 32.8 °F 20.8 °F 55% 29.82 in 10.0 mi NNW 3.5 mph - N/A   Overcast
2:55 PM 35.6 °F 31.7 °F 21.4 °F 56% 29.81 in 10.0 mi NW 4.6 mph - N/A   Overcast
3:15 PM 35.4 °F 32.6 °F 22.6 °F 60% 29.81 in 10.0 mi NW 3.5 mph - N/A   Overcast
3:35 PM 33.1 °F - 19.6 °F 58% 29.80 in 10.0 mi Calm Calm - N/A   Overcast
3:55 PM 33.1 °F 30.0 °F 21.7 °F 63% 29.79 in 10.0 mi NNW 3.5 mph - N/A   Overcast
4:15 PM 32.0 °F 27.5 °F 22.8 °F 69% 29.79 in 1.5 mi NNW 4.6 mph - N/A Snow Light Snow
4:35 PM 30.9 °F 27.5 °F 25.0 °F 79% 29.79 in 1.8 mi NW 3.5 mph - N/A Snow Light Snow
4:55 PM 30.9 °F 27.5 °F 26.4 °F 83% 29.79 in 1.2 mi NW 3.5 mph - N/A Snow Snow
5:15 PM 30.9 °F 25.2 °F 27.1 °F 86% 29.79 in 1.2 mi NNW 5.8 mph - N/A Snow Light Snow
5:35 PM 30.9 °F 27.5 °F 27.1 °F 86% 29.79 in 3.0 mi NNW 3.5 mph - N/A Snow Light Snow
5:55 PM 30.9 °F 25.2 °F 26.6 °F 84% 29.79 in 7.0 mi WNW 5.8 mph - N/A Snow Light Snow
6:15 PM 30.9 °F 24.3 °F 26.4 °F 83% 29.79 in 10.0 mi NW 6.9 mph - N/A Snow Light Snow
6:35 PM 28.9 °F 21.9 °F 24.1 °F 82% 29.80 in 2.5 mi WNW 6.9 mph - N/A Snow Light Snow
6:55 PM 28.6 °F 22.4 °F 24.1 °F 83% 29.80 in 4.0 mi NW 5.8 mph - N/A Snow Light Snow
7:15 PM 28.4 °F 19.7 °F 24.3 °F 84% 29.81 in 1.5 mi NW 9.2 mph - N/A Snow Light Snow
7:35 PM 28.4 °F 21.2 °F 23.9 °F 83% 29.81 in 4.0 mi NW 6.9 mph 16.1 mph N/A Snow Light Snow
7:55 PM 26.8 °F 17.7 °F 21.6 °F 81% 29.82 in 5.0 mi NW 9.2 mph 16.1 mph N/A Snow Light Snow
8:15 PM 25.7 °F 15.7 °F 18.5 °F 74% 29.82 in 7.0 mi NNW 10.4 mph 16.1 mph N/A   Overcast
8:35 PM 25.7 °F 16.4 °F 19.2 °F 76% 29.84 in 3.0 mi NW 9.2 mph - N/A Snow Light Snow
8:55 PM 24.6 °F 14.4 °F 17.6 °F 75% 29.84 in 4.0 mi NW 10.4 mph 16.1 mph N/A Snow Light Snow
9:15 PM 23.9 °F 15.0 °F 15.6 °F 71% 29.85 in 7.0 mi WNW 8.1 mph - N/A Snow Light Snow
9:35 PM 23.9 °F 14.2 °F 12.9 °F 63% 29.85 in 10.0 mi NW 9.2 mph 17.3 mph N/A   Overcast
9:55 PM 23.5 °F 16.4 °F 12.4 °F 62% 29.85 in 10.0 mi WNW 5.8 mph 17.3 mph N/A   Overcast
10:15 PM 23.4 °F 12.8 °F 13.1 °F 65% 29.86 in 7.0 mi NW 10.4 mph 17.3 mph N/A   Overcast
10:35 PM 23.4 °F 14.3 °F 15.6 °F 72% 29.86 in 3.0 mi WNW 8.1 mph - N/A Snow Light Snow
10:55 PM 22.6 °F 16.5 °F 16.9 °F 79% 29.87 in 2.0 mi NW 4.6 mph - N/A Snow Light Snow
11:15 PM 22.1 °F 13.7 °F 17.4 °F 82% 29.87 in 0.8 mi NW 6.9 mph - N/A Snow Snow
11:35 PM 21.9 °F 13.4 °F 15.1 °F 75% 29.87 in 10.0 mi WNW 6.9 mph - N/A   Overcast
11:55 PM 22.3 °F 11.5 °F 11.7 °F 64% 29.87 in 10.0 mi NW 10.4 mph - N/A   Overcast